Regional Weather Roundup
Issued by NWS

Home | Current Version | Previous Version | Text Only | Print | Product List | Glossary Off
Versions: 1 2 3 4 5 6 7 8 9 10 11 12 13 14 15 16 17 18 19 20 21 22 23 24 25 26 27 28 29 30 31 32 33 34 35 36 37 38 39 40 41 42 43 44 45 46 47 48 49 50

000
ASUS43 KLSX 112259
RWRMO

WEATHER SUMMARY FOR MISSOURI
NATIONAL WEATHER SERVICE SPRINGFIELD MO
600 PM CDT FRI JUL 11 2014

NOTE: "FAIR" INDICATES FEW OR NO CLOUDS BELOW 12,000 FEET WITH NO
       SIGNIFICANT WEATHER AND/OR OBSTRUCTIONS TO VISIBILITY.
       CURRENT SKY AND/OR WEATHER CONDITIONS ARE NOT AVAILABLE FOR
       CHILLICOTHE AND FARMINGTON.

MOZ001>031-035>038-043-044-053-054-120000-
...NORTHERN AND WESTERN MISSOURI...

CITY           SKY/WX    TMP DP  RH WIND       PRES   REMARKS
KANSAS CTY INT PTSUNNY   87  75  67 S10       30.01R HX  96
KANSAS C DTWN  MOSUNNY   89  72  56 S13       29.99F HX  96
LEE`S SUMMIT   MOSUNNY   88  75  65 SW13      30.02F HX  97
ST JOSEPH      PTSUNNY   88  75  65 S15       29.97F HX  97
CHILLICOTHE      N/A     86  74  67 S7        30.01F HX  94
KIRKSVILLE     PTSUNNY   83  74  74 S10       30.03F

$$
MOZ066>068-077>081-088>096-101>105-120000-
...SOUTHWEST MISSOURI...

CITY           SKY/WX    TMP DP  RH WIND       PRES   REMARKS
SPRINGFIELD    MOSUNNY   88  69  53 S9        30.09F HX  92
JOPLIN         MOSUNNY   90  69  50 S13       30.07F HX  94

$$
MOZ032>034-039>042-045>050-055>058-069>072-120000-
...CENTRAL MISSOURI...

CITY           SKY/WX    TMP DP  RH WIND       PRES   REMARKS
COLUMBIA       PTSUNNY   87  75  67 S12G20    30.04F HX  96
JEFFERSON CITY PTSUNNY   88  74  63 S6        30.02F HX  96
ROLLA          MOSUNNY   85  71  63 S10       30.07F HX  90
SEDALIA        MOSUNNY   89  75  63 SW13      30.04F HX  99
OSAGE BEACH    MOSUNNY   90  73  58 SW8       30.06S HX  98

$$
MOZ051-052-059>065-120000-
...EAST CENTRAL MISSOURI...

CITY           SKY/WX    TMP DP  RH WIND       PRES   REMARKS
ST LOUIS INTL  PTSUNNY   89  68  49 S13       30.07F HX  93
SPIRIT OF STL  PTSUNNY   88  68  51 S8        30.05F HX  91
ST CHARLES     PTSUNNY   86  71  60 S10       30.05F HX  91

$$
MOZ072>076-082>087-097>100-106>115-120000-
...SOUTH CENTRAL AND SOUTHEAST MISSOURI...

CITY           SKY/WX    TMP DP  RH WIND       PRES   REMARKS
CAPE GIRARDEAU SUNNY     88  66  48 SW9       30.10F HX  90
FARMINGTON     MOSUNNY   84  70  61 S12       30.14R
POPLAR BLUFF   SUNNY     87  68  52 SW5       30.09F HX  90
WEST PLAINS    MOSUNNY   85  72  65 S8        30.14F HX  91

$$


USA.gov is the U.S. government's official web portal to all federal, state and local government web resources and services.